Regional Weather Roundup
Issued by NWS

Home | Current Version | Previous Version | Graphics & Text | Print | Product List | Glossary On
Versions: 1 2 3 4 5 6 7 8 9 10 11 12 13 14 15 16 17 18 19 20 21 22 23 24 25 26 27 28 29 30 31 32 33 34 35 36 37 38 39 40 41 42 43 44 45 46 47 48 49 50
435
ASUS45 KPSR 150610
RWRAZ

ARIZONA HOURLY REGIONAL WEATHER ROUNDUP
NATIONAL WEATHER SERVICE PHOENIX AZ
1100 PM MST THU DEC 14 2017

NOTE: FAIR INDICATES FEW OR NO CLOUDS BELOW 12,000 FEET WITH NO
SIGNIFICANT WEATHER AND/OR OBSTRUCTIONS TO VISIBILITY.

AZZ001>003-036-150700-
NORTHWEST ARIZONA

CITY           SKY/WX    TMP DP  RH WIND       PRES   REMARKS
BULLHEAD CITY  CLEAR     63  18  17 N22       30.20R
KINGMAN        CLEAR     41  16  36 E5        30.27R
6HR MIN TEMP:  40; 6HR MAX TEMP:  56;

$$

AZZ004>008-015-016-018-150700-
NORTH CENTRAL ARIZONA

CITY           SKY/WX    TMP DP  RH WIND       PRES   REMARKS
GRAND CANYON   PTCLDY    32  -1  24 NE10      30.34S WCI  24
6HR MIN TEMP:  17; 6HR MAX TEMP:  42;

WILLIAMS       PTCLDY    36   5  27 NE16G24   30.29S WCI  26
PRESCOTT       PTCLDY    33  10  38 NW9       30.26R WCI  25
6HR MIN TEMP:  32; 6HR MAX TEMP:  52;

FLAGSTAFF      CLEAR     34   2  25 NE14      30.31R WCI  25
6HR MIN TEMP:  33; 6HR MAX TEMP:  39;

PAYSON         CLEAR     43  12  28 NE14      30.22R
PAGE           PTCLDY    41  11  29 S5        30.33R
6HR MIN TEMP:  38; 6HR MAX TEMP:  50;

$$

AZZ009>014-017-150700-
NORTHEAST ARIZONA

CITY           SKY/WX    TMP DP  RH WIND       PRES   REMARKS
WINSLOW        PTCLDY    27   9  46 W12       30.32R WCI  17
6HR MIN TEMP:  25; 6HR MAX TEMP:  51;

SAINT JOHNS    CLEAR     26  14  60 W3        30.28R
6HR MIN TEMP:  25; 6HR MAX TEMP:  49;

WINDOW ROCK    CLEAR     22  11  62 CALM      30.28S
6HR MIN TEMP:  20; 6HR MAX TEMP:  45;

SHOW LOW       CLEAR     28  16  59 N3        30.30R
$$

AZZ540-542>544-546-548-150700-
GREATER PHOENIX AREA

CITY           SKY/WX    TMP DP  RH WIND       PRES   REMARKS
PHOENIX        CLEAR     63  22  20 N8        30.08R
6HR MIN TEMP:  59; 6HR MAX TEMP:  72;

BUCKEYE        CLEAR     63  16  16 N6        30.10R
LUKE AFB       CLEAR     62  19  19 NW9       30.09R
6HR MIN TEMP:  62; 6HR MAX TEMP:  72; 6HR PCP: TRACE;

DEER VALLEY    CLEAR     63  17  17 N18       30.09R
6HR MIN TEMP:  61; 6HR MAX TEMP:  70; 6HR PCP: TRACE;

SCOTTSDALE     CLEAR     64  22  20 NE21      30.10R
6HR MIN TEMP:  63; 6HR MAX TEMP:  72;

MESA-GATEWAY   CLEAR     64  23  20 NE15      30.09R
$$

AZZ539-553-150700-
SOUTHWEST MARICOPA COUNTY AND PINAL COUNTY

CITY           SKY/WX    TMP DP  RH WIND       PRES   REMARKS
CASA GRANDE    NOT AVBL
$$

AZZ503-504-507>509-150700-
SOUTHEAST ARIZONA

CITY           SKY/WX    TMP DP  RH WIND       PRES   REMARKS
TUCSON         CLEAR     47  16  29 SE6       30.10R
6HR MIN TEMP:  47; 6HR MAX TEMP:  67;

DAVIS-MONTHAN  CLEAR     46  15  29 SE8       30.08R
6HR MIN TEMP:  45; 6HR MAX TEMP:  65;

NOGALES        CLEAR     50  16  25 N6        30.09R
6HR MIN TEMP:  46; 6HR MAX TEMP:  63;

SIERRA VISTA   CLEAR     44  19  35 NE3       30.16R
6HR MIN TEMP:  41; 6HR MAX TEMP:  57;

DOUGLAS        CLEAR     44  33  65 NE8       30.15R
6HR MIN TEMP:  41; 6HR MAX TEMP:  58;

SAFFORD        CLEAR     45  13  27 SE8       30.14R
6HR MIN TEMP:  43; 6HR MAX TEMP:  60;

$$

AZZ532-150700-
SOUTHWEST ARIZONA

CITY           SKY/WX    TMP DP  RH WIND       PRES   REMARKS
YUMA           CLEAR     64  21  19 N14       30.09R
6HR MIN TEMP:  64; 6HR MAX TEMP:  74;

$$

CAZ041-043-047-048-061-525>527-560>570-150700-
SOUTHERN CALIFORNIA

CITY           SKY/WX    TMP DP  RH WIND       PRES   REMARKS
DOWNTOWN L.A.  CLEAR     57  38  48 CALM      30.07R
6HR MIN TEMP:  56; 6HR MAX TEMP:  75;

L.A. AIRPORT   PTCLDY    63  42  46 N5        30.08R
6HR MIN TEMP:  57; 6HR MAX TEMP:  67;

SAN DIEGO      CLEAR     58  40  51 CALM      30.09R
6HR MIN TEMP:  56; 6HR MAX TEMP:  70;

BURBANK        CLEAR     64  19  17 VRB6      30.08R
6HR MIN TEMP:  64; 6HR MAX TEMP:  79;

ONTARIO        PTCLDY    63  10  12 NE6       30.10R
6HR MIN TEMP:  62; 6HR MAX TEMP:  79;

RIVERSIDE      PTCLDY    71  14  11 NE12G26   30.13R
6HR MIN TEMP:  71; 6HR MAX TEMP:  78;

PALM SPRINGS   CLEAR     72  14  11 N10       30.17R
6HR MIN TEMP:  65; 6HR MAX TEMP:  79;

EL CENTRO NAS  CLEAR     59  23  25 CALM      30.12R
6HR MIN TEMP:  53; 6HR MAX TEMP:  76;

IMPERIAL       CLEAR     55  31  39 SW7       30.10R
6HR MIN TEMP:  53; 6HR MAX TEMP:  77;

BLYTHE         CLEAR     67  18  15 N21       30.12R
6HR MIN TEMP:  66; 6HR MAX TEMP:  73;

NEEDLES        CLEAR     62  19  19 N9        30.19R
6HR MIN TEMP:  61; 6HR MAX TEMP:  70;

$$

NVZ020-UTZ003-150700-
SOUTHERN NEVADA-UTAH

CITY           SKY/WX    TMP DP  RH WIND       PRES   REMARKS
LAS VEGAS      PTCLDY    52  21  29 NW7       30.29R
6HR MIN TEMP:  50; 6HR MAX TEMP:  65;

SALT LAKE CITY PTCLDY    31  25  78 S8        30.41F WCI  23
6HR MIN TEMP:  29; 6HR MAX TEMP:  36;

$$

NMZ009-TXZ055-150700-
NEW MEXICO-WEST TEXAS

CITY           SKY/WX    TMP DP  RH WIND       PRES   REMARKS
ALBUQUERQUE    PTCLDY    33  14  45 N8        30.29R WCI  26
6HR MIN TEMP:  33; 6HR MAX TEMP:  43;

EL PASO        PTCLDY    43  20  39 N7        30.23R
6HR MIN TEMP:  43; 6HR MAX TEMP:  54;

$$


........................KEY........................
SKY/WX - SKY CONDITION/WEATHER
TMP    - TEMPERATURE IN FAHRENHEIT
DP     - DEW POINT IN FAHRENHEIT
RH     - RELATIVE HUMIDITY IN PERCENT
WIND   - DIRECTION AND SPEED IN MILES PER HOUR (MPH)
VRB    - VARIABLE WIND DIRECTION
PRES   - MEAN SEA LEVEL PRESSURE IN INCHES OF MERCURY
         F - FALLING PRESSURE   R - RISING PRESSURE
         S - STEADY PRESSURE
VSB    - VISIBILITY IN MILES
HX     - HEAT INDEX IN FAHRENHEIT
WCI    - WIND CHILL INDEX IN FAHRENHEIT
TC     - TEMPERATURE IN CELSIUS WHICH IS ALSO KNOWN AS
         TEMPERATURE IN CENTIGRADE
AFB    - AIR FORCE BASE
         LUKE AFB IS LUKE AIR FORCE BASE
         DAVIS-MONTHAN IS DAVIS-MONTHAN AIR FORCE BASE
NAS    - NAVAL AIR STATION
         EL CENTRO NAS IS EL CENTRO NAVAL AIR STATION
N/A    - NOT AVAILABLE





USA.gov is the U.S. government's official web portal to all federal, state and local government web resources and services.